Regional Weather Roundup
Issued by NWS

Home | Current Version | Previous Version | Text Only | Print | Product List | Glossary On
Versions: 1 2 3 4 5 6 7 8 9 10 11 12 13 14 15 16 17 18 19 20 21 22 23 24 25 26 27 28 29 30 31 32 33 34 35 36 37 38 39 40 41 42 43 44 45 46 47 48 49 50
000
ASUS43 KOAX 291610
RWRNE

WEATHER ROUNDUP FOR NEBRASKA
NATIONAL WEATHER SERVICE OMAHA NE
1100 AM CDT FRI APR 29 2016

NOTES: SATELLITE DATA IS BEING USED TO AUGMENT CLOUD COVER ABOVE
       12000 FEET.
       "FAIR" INDICATES FEW OR NO CLOUDS BELOW 12,000 FEET WITH NO
       SIGNIFICANT WEATHER AND/OR OBSTRUCTIONS TO VISIBILITY.

  * THESE STATIONS DO NOT REPORT WEATHER SUCH AS RAIN...SNOW OR FOG.

NEZ001>004-019>022-054>056-291700-
NEBRASKA PANHANDLE

CITY           SKY/WX    TMP DP  RH WIND       PRES   REMARKS
SCOTTSBLUFF    CLOUDY    42  34  73 NE6       30.00F
ALLIANCE       CLOUDY    41  36  82 N16       29.99F
CHADRON        CLOUDY    41  34  76 MISG      30.06F
KIMBALL        CLOUDY    37  34  91 E3        29.98F
SIDNEY         CLOUDY    40  34  79 NE8       30.00S WCI  34
$$

NEZ057>060-069>072-079>082-291700-
SOUTHWEST NEBRASKA

CITY           SKY/WX    TMP DP  RH WIND       PRES   REMARKS
NORTH PLATTE   CLOUDY    43  36  76 NE12      30.04R
IMPERIAL       CLOUDY    42  37  82 NE15      30.01S
LEXINGTON      CLOUDY    44  37  78 NE14      30.06S
MCCOOK         CLOUDY    43  38  82 NE16      30.02F
OGALLALA       CLOUDY    43  34  71 E14       30.03R
$$

NEZ005>010-023>029-035>040-094-291700-
NORTH CENTRAL NEBRASKA

CITY           SKY/WX    TMP DP  RH WIND       PRES   REMARKS
VALENTINE      CLOUDY    42  36  79 N13       30.05F
AINSWORTH      CLOUDY    41  38  90 N13G18    30.04F
BROKEN BOW     CLOUDY    43  37  79 NE10      30.06R
O`NEILL        CLOUDY    41  39  90 NE12G17   30.07S
ORD            CLOUDY    43  39  86 NE10      30.07R
THEDFORD       CLOUDY    43  38  83 NE13      30.04R
$$

NEZ041-046>049-061>064-073>077-083>087-291700-
SOUTH CENTRAL NEBRASKA

CITY           SKY/WX    TMP DP  RH WIND       PRES   REMARKS
GRAND ISLAND   CLOUDY    44  38  79 E12       30.10R
AURORA         CLOUDY    45  41  85 E14       30.09R
HASTINGS       CLOUDY    44  37  76 NE14      30.08R
HEBRON         CLOUDY    45  39  81 E12       30.08S
HOLDREGE       CLOUDY    43  38  82 NE15      30.05S
KEARNEY *      CLOUDY    43  37  81 E13       30.08R
YORK           CLOUDY    45  39  81 E15       30.10S
$$

NEZ011>018-030>034-042>045-291700-
NORTHEAST NEBRASKA

CITY           SKY/WX    TMP DP  RH WIND       PRES   REMARKS
NORFOLK        CLOUDY    42  38  85 E8        30.11R
ALBION         CLOUDY    44  38  79 NE9       30.10R
BLAIR          CLOUDY    46  40  82 NE9       30.10F
COLUMBUS *     CLOUDY    45  34  65 E12       30.12R
FREMONT        CLOUDY    45  39  82 NE8       30.12S
TEKAMAH        CLOUDY    46  41  82 E8        30.14R
WAYNE          CLOUDY    43  40  88 E14       30.13R
$$

NEZ050>053-065>068-078-088>093-291700-
SOUTHEAST NEBRASKA

CITY           SKY/WX    TMP DP  RH WIND       PRES   REMARKS
LINCOLN        CLOUDY    47  39  74 E12       30.11S
OMAHA EPPLEY   CLOUDY    47  39  74 E9        30.11F
BEATRICE       CLOUDY    45  39  79 E9        30.08F
FALLS CITY     CLOUDY    49  43  80 NE9       30.05F
NEBRASKA CITY  CLOUDY    47  40  76 NE12      30.08S
PLATTSMOUTH    CLOUDY    46  39  77 NE12      30.09F
$$

NEZ044-045-051>053-067-291700-
OMAHA AREA

CITY           SKY/WX    TMP DP  RH WIND       PRES   REMARKS
OMAHA EPPLEY   CLOUDY    47  39  74 E9        30.11F
BLAIR          CLOUDY    46  40  82 NE9       30.10F
FREMONT        CLOUDY    45  39  82 NE8       30.12S
MILLARD        CLOUDY    46  39  74 E5        30.10F
OFFUTT AFB     CLOUDY    47  40  77 NE8       30.09F
PLATTSMOUTH    CLOUDY    46  39  77 NE12      30.09F
WAHOO          CLOUDY    46  40  80 E6        30.11S
$$



USA.gov is the U.S. government's official web portal to all federal, state and local government web resources and services.